User: anonymous   Login
Location: Oshawa
(43.9000°N, 78.8670°W)
Time: 15:49:32
(UTC-04:00)
Language:

SPOT 5 - Orbit

View from above orbital plane
View from above orbital plane
View from above satellite
View from above satellite

Ground track
Ground track

The orbit data is extracted from the following two-line orbital elements,

1 27421U 02021A   15147.50930660  .00000168  00000-0  97104-4 0  9998
2 27421 098.5123 203.8728 0001446 102.8698 005.7716 14.20884726677193
Epoch (UTC): 27 May 2015 12:13:24
Eccentricity: 0.0001446
inclination: 98.5123°
perigee height: 821 km
apogee height: 823 km
right ascension of ascending node: 203.8728°
argument of perigee: 102.8698°
revolutions per day: 14.20884726
mean anomaly at epoch: 5.7716°
orbit number at epoch: 67719

The dashed part of the orbit path shows where the satellite is in the earth's shadow,  

DLR